INMARSAT 2-F3

导读 | 星芒AI

INMARSAT 2-F3 是国际海事卫星组织(INMARSAT)于1996年发射的一颗地球同步通信卫星,主要用于提供海事、航空和陆地移动通信服务。该卫星位于东经70.5度的轨道位置,搭载L波段转发器,支持语音和数据传输。作为第二代INMARSAT卫星的一部分,2-F3在提升全球移动通信覆盖和可靠性方面发挥了重要作用,广泛服务于偏远地区和海上用户。

基本信息
目录编号:
21814
目录名称:
INMARSAT 2-F3
国际标识:
1991-084B
轨道中心:
EARTH
卫星名称:
INMARSAT 2-F3
卫星全名:
--
卫星状态:
在轨 (已飞行12416 天)
发射日期:
1991-12-16 UTC
国别 :
(IM)
星等 :
--
轨道信息
数据来源 国际轨道数据 AOE轨道数据
星历时间 2025-12-12T14:41:58+0800
1天前
查看轨道信息
2025-12-12T04:00:00+0800
1天前
查看轨道信息
半长轴 43387.78km 43387.81km
偏心率 0.0009651 0.0009831
轨道倾角 13.972° 13.971°
近地点辐角 83.506° 83.570°
升交点赤经 14.636° 14.639°
平近点角 97.881° 303.642°
近地点 36967.771km 36967.02km
远地点 37051.519km 37052.33km
周期 1499.032分钟 1499.033分钟
每日圈数 0.96062 0.960619
详细信息
使用方式:
暂无
2D轨道图
3D轨道图
轨道高度分析图
轨道倾角分析图
轨道综合分析图
查看轨道综合分析图